Welcome to the New NWS' Forecast!
Most changes are behind the scenes, but click here for differences you might notice.
Latest weather observations around

Whidbey Island, Naval Air Station (KNUW)

Using English Units (Switch to International System of Units)
Date/ Time (PDT) Wind (mph) Vis. (mi) Weather Sky Cond. Temp (°F) Rel. Humidity Wind Chill (°F) Heat Index (°F) Pressure Precip. (in)
Air Dwpt 6 hour Altimeter (inHg) Sea level (inHg) 1 hr 3 hr 6 hr
Max Min
Oct 23 10:56 ESE 9 10 Mostly Cloudy FEW030 BKN090 BKN220 59 44     58%     30.67 30.66      
Oct 23 09:56 ESE 10 10 Cloudy SCT025 BKN100 OVC250 57 44     62%     30.65 30.65      
Oct 23 07:22 E 8 8 Mostly Cloudy BKN018 BKN100 52 45     77%     30.62        
Oct 23 06:56 ESE 10 8 Cloudy SCT025 BKN100 OVC140 52 44     74%     30.61 30.6      
Oct 23 06:24 E 11 8 Cloudy BKN025 BKN100 OVC140 54 45     72%     30.61        
Oct 23 05:56 ESE 10 10 Cloudy FEW035 SCT100 OVC130 53 45     74%     30.6 30.6      
Oct 23 04:56 ESE 10 10 Cloudy SCT034 SCT065 OVC130 53 45     74%     30.59 30.58      
Oct 23 01:56 ESE 9 10 Mostly Cloudy FEW032 SCT055 BKN070 50 44     80% 46   30.55 30.55      
Oct 23 00:56 E 9 10 Mostly Cloudy SCT037 SCT050 BKN070 51 45     79%     30.53 30.52      
Oct 22 23:56 ESE 9 10 Partly Cloudy FEW025 SCT065 SCT080 49 43     80% 45   30.5 30.5      
Oct 22 22:56 ESE 7 10 Mostly Cloudy FEW040 BKN070 BKN085 50 42     74% 47   30.49 30.49      
Oct 22 21:56 E 8 10 Mostly Cloudy SCT044 BKN070 BKN090 51 42     71%     30.47 30.46      
Oct 22 20:56   10 Mostly Cloudy SCT043 BKN075 BKN090 52 43     71%     30.45 30.45      
Oct 22 19:56 NW 5 10 Mostly Cloudy FEW044 SCT060 SCT085 BKN200 53 42     66%     30.41 30.41      
Oct 22 18:56   10 Mostly Cloudy SCT035 BKN080 BKN120 BKN200 54 43     66%     30.39 30.38      
Oct 22 17:56 W 9 10 Mostly Cloudy SCT034 SCT070 BKN140 BKN200 57 42     57%     30.37 30.36      
Oct 22 16:56 Calm 10 Mostly Cloudy SCT035 SCT065 BKN140 BKN200 60 42     51%     30.32 30.32     0
Oct 22 15:56 NW 7 10 Mostly Cloudy SCT035 SCT065 BKN140 BKN200 59 43     55%     30.29 30.29      
Oct 22 14:56 N 8 10 Clear CLR 59 45     60%     30.26 30.25      
Oct 22 13:56 NW 8 10 Mostly Cloudy SCT035 SCT065 BKN140 60 44     55%     30.24 30.24   0  
Oct 22 12:56 NNW 8 10 Mostly Cloudy SCT035 SCT055 BKN120 BKN200 60 44     55%     30.22 30.22 0    
Oct 22 11:56 SE 11 10 Mostly Cloudy SCT035 BKN065 BKN120 BKN200 61 45     56%     30.19 30.18      
Oct 22 10:56 SSW 6 10 Mostly Cloudy SCT035 BKN080 BKN160 58 43     57%     30.14 30.14      
Oct 22 09:56 SW 8 10 Mostly Cloudy SCT035 BKN080 BKN160 54 44     69%     30.1 30.1      
Oct 22 08:56 WSW 13 10 Mostly Cloudy FEW035 SCT050 BKN080 BKN160 53 43     69%     30.06 30.06      
Oct 22 07:56 SW 14 10 Mostly Cloudy FEW035 SCT050 BKN080 BKN160 54 42     64%     30 30      
Oct 22 06:56 SW 7 10 Partly Cloudy FEW035 SCT050 SCT160 53 43     69%     29.93 29.93      
Oct 22 05:56 W 9 10 Partly Cloudy FEW035 FEW050 SCT090 SCT200 54 44     69%     29.89 29.89      
Oct 22 04:56   10 Partly Cloudy FEW034 SCT050 SCT090 SCT200 55 42     62%     29.83 29.83     0
Oct 22 03:56 W 8 10 Mostly Cloudy FEW030 SCT070 BKN090 BKN130 54 47     77%     29.78 29.78 0    
Oct 22 03:30 WSW 7 10 Cloudy SCT027 BKN070 OVC085 54 48     80%     29.77   0    
Oct 22 02:35 3 3 Heavy Rain SCT007 BKN022 OVC032 55 50     83%     29.75   0    
Oct 22 02:20 ESE 8 5 Heavy Rain and Fog/Mist BKN027 BKN041 OVC085 54 50     86%     29.72   0    
Oct 22 01:56 E 7 10 Light Rain BKN047 BKN060 OVC080 54 50     86%     29.69 29.69 0 0  
Oct 22 00:56 ESE 6 10 Cloudy FEW019 SCT048 OVC060 55 50     83%     29.67 29.67 0    
Oct 21 23:56 SSE 8 10 Cloudy SCT019 BKN055 BKN085 BKN130 OVC150 55 50     83%     29.65 29.64      
Oct 21 22:56 SSE 6 10 Cloudy SCT027 BKN055 OVC110 55 50     83%     29.64 29.63 0   0
Oct 21 21:56 SE 6 10 Light Rain SCT026 BKN033 OVC041 55 50     83%     29.64 29.63 0    
Oct 21 21:12 SE 9 10 Light Rain BKN028 BKN055 OVC080 54 50     86%     29.63   0    
Oct 21 20:56 SE 10 9 Light Rain SCT031 BKN065 OVC080 54 50     86%     29.61 29.61 0    
Oct 21 19:56 SE 18 6 Rain and Fog/Mist SCT047 BKN060 OVC080 53 48     83%     29.6 29.59 0 0  
Oct 21 18:56   9 Light Rain SCT020 SCT041 OVC075 53 47     80%     29.6 29.59 0    
Oct 21 17:56   10 Light Rain SCT019 BKN046 OVC095 52 45     77%     29.58 29.58 0    
Oct 21 16:56 ESE 22 10 Light Rain SCT008 BKN021 OVC080 51 45     79%     29.6 29.6 0   0
Oct 21 15:56   6 Light Rain and Fog/Mist SCT011 BKN020 OVC070 51 45     79%     29.67 29.67 0    
Oct 21 14:56 SE 21 10 Light Rain SCT011 BKN016 OVC060 52 44     74%     29.71 29.7 0    
Oct 21 13:56   10 Cloudy BKN017 BKN085 OVC140 53 43     69%     29.72 29.71   0  
Oct 21 13:24   10 Cloudy BKN018 BKN100 OVC140 53 43     69%     29.73        
Oct 21 12:56   10 Cloudy SCT019 BKN070 BKN100 OVC140 53 43     69%     29.73 29.72      
Oct 21 11:56   10 Cloudy FEW027 BKN070 OVC080 52 43     71%     29.74 29.73 0    
Oct 21 10:56   10 Light Rain SCT029 BKN070 OVC095 52 43     71%     29.73 29.73 0   0
Oct 21 09:56 SE 20 10 Cloudy and Windy SCT024 BKN036 OVC080 50 42     74% 44   29.74 29.74      
Oct 21 08:56 ESE 20 10 Cloudy and Windy BKN038 BKN060 OVC080 48 41     77% 41   29.77 29.76      
Oct 21 07:56 ESE 17 10 Cloudy SCT034 BKN055 OVC085 48 41     77% 42   29.77 29.77 0 0  
Oct 21 06:56 ESE 18 10 Light Rain FEW033 SCT046 OVC075 48 42     80% 41   29.8 29.79 0    
Oct 21 05:56 ESE 20 10 Light Rain SCT035 BKN055 OVC070 47 41     80% 40   29.84 29.83 0    
Oct 21 04:56 ESE 16 10 Light Rain SCT021 BKN060 OVC110 49 41     74% 43   29.86 29.86 0   0
Oct 21 03:56   10 Cloudy BKN023 BKN110 OVC230 50 39     66%     29.87 29.87      
Oct 21 03:44   10 Cloudy BKN023 BKN110 OVC230 50 40     68%     29.88        
Oct 21 02:56 ESE 14 10 Mostly Cloudy SCT017 BKN045 BKN100 49 40     71% 44   29.9 29.9      
Oct 21 01:56 ESE 16 10 Cloudy BKN019 BKN045 OVC100 48 40     73% 42   29.91 29.91      
Oct 21 00:56   10 Mostly Cloudy SCT024 BKN045 BKN100 47 40     76%     29.92 29.91      
Oct 20 23:56   10 Mostly Cloudy SCT032 SCT050 BKN120 47 39     74%     29.94 29.93      
Oct 20 22:56 E 8 10 Mostly Cloudy FEW008 BKN035 BKN048 48 42     80% 44   29.95 29.95 0   0
Oct 20 21:56 ESE 9 10 Mostly Cloudy FEW008 SCT030 BKN060 BKN240 47 41     80% 43   29.95 29.94      
Oct 20 20:56 SE 7 10 Clear   47 40     76% 44   29.93 29.93      
Oct 20 19:56 3 10 Mostly Cloudy FEW035 SCT070 SCT110 BKN170 50 41     71% 49   29.92 29.92      
Oct 20 18:56 WNW 9 10 Mostly Cloudy FEW032 SCT050 SCT100 BKN180 51 41     68%     29.89 29.89      
Oct 20 17:56 W 14 10 Mostly Cloudy FEW025 SCT045 SCT090 BKN160 BKN220 52 42     69%     29.86 29.86      
Oct 20 16:56 W 13 10 Mostly Cloudy SCT033 BKN065 BKN090 BKN200 52 42     69%     29.84 29.83     0
Oct 20 15:56 SW 10 10 Mostly Cloudy SCT035 BKN070 BKN090 BKN200 54 41     61%     29.83 29.82 0    
Oct 20 14:56 SW 8 10 Light Rain SCT028 BKN034 OVC055 53 43     69%     29.81 29.81 0    
Oct 20 14:07 SW 9 10 Cloudy BKN028 BKN048 OVC065 55 41     59%     29.79        
Oct 20 13:56 SW 9 10 Mostly Cloudy SCT030 BKN048 BKN065 BKN200 56 41     57%     29.78 29.78   0  
Oct 20 12:56 S 6 10 Cloudy FEW023 BKN032 OVC080 56 42     60%     29.75 29.75      
Oct 20 11:56   10 Mostly Cloudy FEW021 SCT033 BKN085 BKN250 55 43     64%     29.74 29.74 0    
Jun 12 05:56 SW 10 8 Cloudy BKN009 OVC055 55 50     83%     30.03        
Jun 11 19:56 WSW 7 10 Partly Cloudy FEW055 FEW120 SCT170 SCT250 59 47     64%     30.03 30.03      
Jun 11 18:56 W 9 10 Partly Cloudy FEW050 FEW110 SCT210 SCT250 59 48     67%     30.02 30.02      
Jun 10 18:56 WSW 3 10 Mostly Cloudy FEW050 SCT080 SCT120 BKN240 57 47     69%     29.92        
Jun 10 16:56 WSW 11 10 Mostly Cloudy FEW030 SCT045 SCT070 SCT210 BKN250 58 47     67%     29.91        
Jun 10 14:56 W 9 10 Mostly Cloudy FEW026 SCT042 SCT110 BKN220 BKN250 59 47     64%     29.91 29.91      
Jun 09 23:56 SE 7 10 Mostly Cloudy FEW032 BKN070 BKN090 54 45     72%     29.88 29.88      
Jun 08 18:56 ESE 5 10 Light Rain SCT032 BKN045 BKN060 OVC140 56 49     77%       29.94 0    
Jun 07 21:56 3 10 Cloudy FEW050 SCT090 BKN110 OVC220 60 42     51%              
Jun 07 11:56 WNW 7 10 Mostly Cloudy FEW050 SCT120 BKN190 63 47     56%     29.79 29.79      
Jun 07 05:56 Calm 10 Cloudy FEW120 SCT160 OVC250 52 43     71%     29.9